This is the latest recevied weather packets stored in our database for station/object AE5EW. If no packets are shown the sender has not sent any weather packets the latest 10 day(s).
| Time | Temp. | Humidity | Pressure | Rain* | Wind** | Luminosity | Snow |
|---|---|---|---|---|---|---|---|
| 1787497667 | 32.78° C | 63% | 1018.2 hPa | 0 mm | - | - | - |
| 1787497362 | 32.22° C | 67% | 1018.1 hPa | 0 mm | - | - | - |
| 1787497061 | 31.67° C | 64% | 1018.2 hPa | 0 mm | - | - | - |
| 1787496756 | 31.67° C | 71% | 1018.2 hPa | 0 mm | - | - | - |
| 1787496451 | 31.11° C | 71% | 1018.1 hPa | 0 mm | - | - | - |
| 1787496146 | 30.56° C | 71% | 1018 hPa | 0 mm | - | - | - |
| 1787495840 | 29.44° C | 72% | 1018.2 hPa | 0 mm | - | - | - |
| 1787495536 | 29.44° C | 75% | 1018.1 hPa | 0 mm | - | - | - |
| 1787495232 | 29.44° C | 74% | 1017.9 hPa | 0 mm | - | - | - |
| 1787494928 | 29.44° C | 73% | 1018.1 hPa | 0 mm | - | - | - |
| 1787494627 | 30° C | 74% | 1017.9 hPa | 0 mm | - | - | - |
| 1787494323 | 29.44° C | 74% | 1018.2 hPa | 0 mm | - | - | - |
| 1787494019 | 29.44° C | 77% | 1018.1 hPa | 0 mm | - | - | - |
| 1787493715 | 27.78° C | 81% | 1018.2 hPa | 0 mm | - | - | - |
| 1787493414 | 27.78° C | 81% | 1018 hPa | 0 mm | - | - | - |
| 1787493110 | 27.22° C | 82% | 1018.1 hPa | 0 mm | - | - | - |
| 1787492805 | 26.67° C | 83% | 1018 hPa | 0 mm | - | - | - |
| 1787492502 | 26.67° C | 83% | 1018.1 hPa | 0 mm | - | - | - |
| 1787492197 | 26.11° C | 83% | 1017.9 hPa | 0 mm | - | - | - |
| 1787491892 | 26.11° C | 84% | 1018.3 hPa | 0 mm | - | - | - |
| 1787491587 | 26.11° C | 84% | 1018.1 hPa | 0 mm | - | - | - |
| 1787491283 | 26.11° C | 84% | 1017.9 hPa | 0 mm | - | - | - |
| 1787490978 | 26.67° C | 83% | 1018 hPa | 0 mm | - | - | - |
| 1787490674 | 26.11° C | 85% | 1017.8 hPa | 0 mm | - | - | - |
| 1787490373 | 25.56° C | 85% | 1018 hPa | 0 mm | - | - | - |
* Rain latest hour (hover to see other rain measurements)
** Current wind speed in m/s (hover to see current wind gust speed)